Year,Month,Day,Hour,Minute,Value (Times are PST for temperature in C)
2009,08,15,00,00,13.70
2009,08,15,00,01,13.70
2009,08,15,00,02,13.70
2009,08,15,00,03,13.70
2009,08,15,00,04,13.70
2009,08,15,00,05,13.70
2009,08,15,00,06,13.70
2009,08,15,00,07,13.70
2009,08,15,00,08,13.70
2009,08,15,00,09,13.70
2009,08,15,00,10,13.70
2009,08,15,00,11,13.70
2009,08,15,00,12,13.70
2009,08,15,00,13,13.80
2009,08,15,00,14,13.80
2009,08,15,00,15,13.80
2009,08,15,00,16,13.80
2009,08,15,00,17,13.80
2009,08,15,00,18,13.80
2009,08,15,00,19,13.80
2009,08,15,00,20,13.80
2009,08,15,00,21,13.80
2009,08,15,00,22,13.80
2009,08,15,00,23,13.80
2009,08,15,00,24,13.80
2009,08,15,00,25,13.90
2009,08,15,00,26,13.90
2009,08,15,00,27,13.90
2009,08,15,00,28,13.90
2009,08,15,00,29,13.80
2009,08,15,00,30,13.80
2009,08,15,00,31,13.80
2009,08,15,00,32,13.80
2009,08,15,00,33,13.80
2009,08,15,00,34,13.80
2009,08,15,00,35,13.80
2009,08,15,00,36,13.80
2009,08,15,00,37,13.80
2009,08,15,00,38,13.80
2009,08,15,00,39,13.80
2009,08,15,00,40,13.80
2009,08,15,00,41,13.80
2009,08,15,00,42,13.80
2009,08,15,00,43,13.80
2009,08,15,00,44,13.80
2009,08,15,00,45,13.80
2009,08,15,00,46,13.80
2009,08,15,00,47,13.80
2009,08,15,00,48,13.80
2009,08,15,00,49,13.80
2009,08,15,00,50,13.80
2009,08,15,00,51,13.80
2009,08,15,00,52,13.80
2009,08,15,00,53,13.80
2009,08,15,00,54,13.80
2009,08,15,00,55,13.80
2009,08,15,00,56,13.80
2009,08,15,00,57,13.80
2009,08,15,00,58,13.80
2009,08,15,00,59,13.80
2009,08,15,01,00,13.80
2009,08,15,01,01,13.80
2009,08,15,01,02,13.80
2009,08,15,01,03,13.80
2009,08,15,01,04,13.80
2009,08,15,01,05,13.70
2009,08,15,01,06,13.80
2009,08,15,01,07,13.80
2009,08,15,01,08,13.80
2009,08,15,01,09,13.80
2009,08,15,01,10,13.80
2009,08,15,01,11,13.70
2009,08,15,01,12,13.70
2009,08,15,01,13,13.70
2009,08,15,01,14,13.70
2009,08,15,01,15,13.70
2009,08,15,01,16,13.70
2009,08,15,01,17,13.70
2009,08,15,01,18,13.70
2009,08,15,01,19,13.70
2009,08,15,01,20,13.70
2009,08,15,01,21,13.70
2009,08,15,01,22,13.60
2009,08,15,01,23,13.60
2009,08,15,01,24,13.60
2009,08,15,01,25,13.50
2009,08,15,01,26,13.50
2009,08,15,01,27,13.50
2009,08,15,01,28,13.40
2009,08,15,01,29,13.40
2009,08,15,01,30,13.40
2009,08,15,01,31,13.30
2009,08,15,01,32,13.30
2009,08,15,01,33,13.30
2009,08,15,01,34,13.30
2009,08,15,01,35,13.30
2009,08,15,01,36,13.20
2009,08,15,01,37,13.20
2009,08,15,01,38,13.10
2009,08,15,01,39,13.10
2009,08,15,01,40,13.10
2009,08,15,01,41,13.10
2009,08,15,01,42,13.10
2009,08,15,01,43,13.00
2009,08,15,01,44,13.00
2009,08,15,01,45,13.00
2009,08,15,01,46,13.00
2009,08,15,01,47,13.00
2009,08,15,01,48,13.00
2009,08,15,01,49,13.00
2009,08,15,01,50,13.00
2009,08,15,01,51,13.00
2009,08,15,01,52,13.00
2009,08,15,01,53,13.00
2009,08,15,01,54,12.90
2009,08,15,01,55,12.90
2009,08,15,01,56,12.90
2009,08,15,01,57,12.90
2009,08,15,01,58,12.90
2009,08,15,01,59,12.90
2009,08,15,02,00,12.80
2009,08,15,02,01,12.80
2009,08,15,02,02,12.80
2009,08,15,02,03,12.80
2009,08,15,02,04,12.80
2009,08,15,02,05,12.80
2009,08,15,02,06,12.70
2009,08,15,02,07,12.70
2009,08,15,02,08,12.70
2009,08,15,02,09,12.70
2009,08,15,02,10,12.70
2009,08,15,02,11,12.70
2009,08,15,02,12,12.70
2009,08,15,02,13,12.70
2009,08,15,02,14,12.70
2009,08,15,02,15,12.70
2009,08,15,02,16,12.60
2009,08,15,02,17,12.60
2009,08,15,02,18,12.60
2009,08,15,02,19,12.60
2009,08,15,02,20,12.60
2009,08,15,02,21,12.60
2009,08,15,02,22,12.60
2009,08,15,02,23,12.60
2009,08,15,02,24,12.60
2009,08,15,02,25,12.60
2009,08,15,02,26,12.60
2009,08,15,02,27,12.60
2009,08,15,02,28,12.60
2009,08,15,02,29,12.60
2009,08,15,02,30,12.60
2009,08,15,02,31,12.60
2009,08,15,02,32,12.60
2009,08,15,02,33,12.60
2009,08,15,02,34,12.60
2009,08,15,02,35,12.60
2009,08,15,02,36,12.60
2009,08,15,02,37,12.60
2009,08,15,02,38,12.60
2009,08,15,02,39,12.50
2009,08,15,02,40,12.50
2009,08,15,02,41,12.50
2009,08,15,02,42,12.50
2009,08,15,02,43,12.50
2009,08,15,02,44,12.50
2009,08,15,02,45,12.50
2009,08,15,02,46,12.50
2009,08,15,02,47,12.50
2009,08,15,02,48,12.50
2009,08,15,02,49,12.50
2009,08,15,02,50,12.40
2009,08,15,02,51,12.40
2009,08,15,02,52,12.40
2009,08,15,02,53,12.40
2009,08,15,02,54,12.40
2009,08,15,02,55,12.40
2009,08,15,02,56,12.40
2009,08,15,02,57,12.40
2009,08,15,02,58,12.50
2009,08,15,02,59,12.50
2009,08,15,03,00,12.50
2009,08,15,03,01,12.50
2009,08,15,03,02,12.50
2009,08,15,03,03,12.50
2009,08,15,03,04,12.50
2009,08,15,03,05,12.40
2009,08,15,03,06,12.40
2009,08,15,03,07,12.40
2009,08,15,03,08,12.40
2009,08,15,03,09,12.40
2009,08,15,03,10,12.40
2009,08,15,03,11,12.30
2009,08,15,03,12,12.30
2009,08,15,03,13,12.30
2009,08,15,03,14,12.30
2009,08,15,03,15,12.30
2009,08,15,03,16,12.30
2009,08,15,03,17,12.30
2009,08,15,03,18,12.30
2009,08,15,03,19,12.30
2009,08,15,03,20,12.30
2009,08,15,03,21,12.30
2009,08,15,03,22,12.30
2009,08,15,03,23,12.30
2009,08,15,03,24,12.30
2009,08,15,03,25,12.20
2009,08,15,03,26,12.30
2009,08,15,03,27,12.30
2009,08,15,03,28,12.30
2009,08,15,03,29,12.20
2009,08,15,03,30,12.20
2009,08,15,03,31,12.20
2009,08,15,03,32,12.20
2009,08,15,03,33,12.20
2009,08,15,03,34,12.20
2009,08,15,03,35,12.20
2009,08,15,03,36,12.20
2009,08,15,03,37,12.20
2009,08,15,03,38,12.10
2009,08,15,03,39,12.10
2009,08,15,03,40,12.10
2009,08,15,03,41,12.00
2009,08,15,03,42,12.00
2009,08,15,03,43,12.00
2009,08,15,03,44,11.90
2009,08,15,03,45,11.90
2009,08,15,03,46,11.80
2009,08,15,03,47,11.80
2009,08,15,03,48,11.80
2009,08,15,03,49,11.80
2009,08,15,03,50,11.70
2009,08,15,03,51,11.60
2009,08,15,03,52,11.60
2009,08,15,03,53,11.60
2009,08,15,03,54,11.60
2009,08,15,03,55,11.60
2009,08,15,03,56,11.50
2009,08,15,03,57,11.40
2009,08,15,03,58,11.40
2009,08,15,03,59,11.40
2009,08,15,04,00,11.40
2009,08,15,04,01,11.30
2009,08,15,04,02,11.30
2009,08,15,04,03,11.20
2009,08,15,04,04,11.10
2009,08,15,04,05,11.10
2009,08,15,04,06,11.10
2009,08,15,04,07,11.10
2009,08,15,04,08,11.10
2009,08,15,04,09,11.10
2009,08,15,04,10,11.10
2009,08,15,04,11,11.10
2009,08,15,04,12,11.10
2009,08,15,04,13,11.00
2009,08,15,04,14,10.90
2009,08,15,04,15,10.90
2009,08,15,04,16,10.90
2009,08,15,04,17,10.90
2009,08,15,04,18,10.90
2009,08,15,04,19,10.90
2009,08,15,04,20,10.90
2009,08,15,04,21,10.90
2009,08,15,04,22,10.80
2009,08,15,04,23,10.80
2009,08,15,04,24,10.80
2009,08,15,04,25,10.70
2009,08,15,04,26,10.70
2009,08,15,04,27,10.70
2009,08,15,04,28,10.70
2009,08,15,04,29,10.70
2009,08,15,04,30,10.70
2009,08,15,04,31,10.80
2009,08,15,04,32,10.80
2009,08,15,04,33,10.80
2009,08,15,04,34,10.80
2009,08,15,04,35,10.90
2009,08,15,04,36,10.90
2009,08,15,04,37,10.90
2009,08,15,04,38,10.90
2009,08,15,04,39,10.90
2009,08,15,04,40,10.90
2009,08,15,04,41,10.90
2009,08,15,04,42,10.90
2009,08,15,04,43,10.90
2009,08,15,04,44,10.90
2009,08,15,04,45,10.90
2009,08,15,04,46,10.90
2009,08,15,04,47,10.90
2009,08,15,04,48,10.90
2009,08,15,04,49,10.90
2009,08,15,04,50,10.90
2009,08,15,04,51,10.90
2009,08,15,04,52,10.90
2009,08,15,04,53,10.90
2009,08,15,04,54,10.90
2009,08,15,04,55,10.90
2009,08,15,04,56,11.00
2009,08,15,04,57,11.10
2009,08,15,04,58,11.10
2009,08,15,04,59,11.10
2009,08,15,05,00,11.10
2009,08,15,05,01,11.10
2009,08,15,05,02,11.10
2009,08,15,05,03,11.10
2009,08,15,05,04,11.10
2009,08,15,05,05,11.20
2009,08,15,05,06,11.20
2009,08,15,05,07,11.20
2009,08,15,05,08,11.30
2009,08,15,05,09,11.30
2009,08,15,05,10,11.30
2009,08,15,05,11,11.30
2009,08,15,05,12,11.30
2009,08,15,05,13,11.30
2009,08,15,05,14,11.30
2009,08,15,05,15,11.30
2009,08,15,05,16,11.30
2009,08,15,05,17,11.30
2009,08,15,05,18,11.30
2009,08,15,05,19,11.30
2009,08,15,05,20,11.30
2009,08,15,05,21,11.40
2009,08,15,05,22,11.40
2009,08,15,05,23,11.40
2009,08,15,05,24,11.40
2009,08,15,05,25,11.40
2009,08,15,05,26,11.50
2009,08,15,05,27,11.60
2009,08,15,05,28,11.60
2009,08,15,05,29,11.60
2009,08,15,05,30,11.60
2009,08,15,05,31,11.60
2009,08,15,05,32,11.60
2009,08,15,05,33,11.60
2009,08,15,05,34,11.60
2009,08,15,05,35,11.60
2009,08,15,05,36,11.60
2009,08,15,05,37,11.60
2009,08,15,05,38,11.70
2009,08,15,05,39,11.70
2009,08,15,05,40,11.70
2009,08,15,05,41,11.80
2009,08,15,05,42,11.80
2009,08,15,05,43,11.80
2009,08,15,05,44,11.80
2009,08,15,05,45,11.80
2009,08,15,05,46,11.80
2009,08,15,05,47,11.80
2009,08,15,05,48,11.80
2009,08,15,05,49,11.80
2009,08,15,05,50,11.80
2009,08,15,05,51,11.80
2009,08,15,05,52,11.80
2009,08,15,05,53,11.80
2009,08,15,05,54,11.80
2009,08,15,05,55,11.70
2009,08,15,05,56,11.70
2009,08,15,05,57,11.70
2009,08,15,05,58,11.70
2009,08,15,05,59,11.70
2009,08,15,06,00,11.60
2009,08,15,06,01,11.60
2009,08,15,06,02,11.60
2009,08,15,06,03,11.60
2009,08,15,06,04,11.60
2009,08,15,06,05,11.60
2009,08,15,06,06,11.60
2009,08,15,06,07,11.70
2009,08,15,06,08,11.70
2009,08,15,06,09,11.70
2009,08,15,06,10,11.70
2009,08,15,06,11,11.70
2009,08,15,06,12,11.70
2009,08,15,06,13,11.70
2009,08,15,06,14,11.70
2009,08,15,06,15,11.70
2009,08,15,06,16,11.70
2009,08,15,06,17,11.70
2009,08,15,06,18,11.80
2009,08,15,06,19,11.80
2009,08,15,06,20,11.80
2009,08,15,06,21,11.80
2009,08,15,06,22,11.80
2009,08,15,06,23,11.80
2009,08,15,06,24,11.80
2009,08,15,06,25,11.80
2009,08,15,06,26,11.80
2009,08,15,06,27,11.80
2009,08,15,06,28,11.90
2009,08,15,06,29,11.90
2009,08,15,06,30,11.90
2009,08,15,06,31,11.90
2009,08,15,06,32,11.90
2009,08,15,06,33,11.90
2009,08,15,06,34,11.90
2009,08,15,06,35,11.90
2009,08,15,06,36,12.00
2009,08,15,06,37,12.00
2009,08,15,06,38,12.00
2009,08,15,06,39,12.00
2009,08,15,06,40,12.00
2009,08,15,06,41,12.00
2009,08,15,06,42,12.00
2009,08,15,06,43,12.00
2009,08,15,06,44,12.00
2009,08,15,06,45,12.10
2009,08,15,06,46,12.10
2009,08,15,06,47,12.10
2009,08,15,06,48,12.10
2009,08,15,06,49,12.10
2009,08,15,06,50,12.10
2009,08,15,06,51,12.10
2009,08,15,06,52,12.10
2009,08,15,06,53,12.10
2009,08,15,06,54,12.10
2009,08,15,06,55,12.10
2009,08,15,06,56,12.20
2009,08,15,06,57,12.20
2009,08,15,06,58,12.20
2009,08,15,06,59,12.20
2009,08,15,07,00,12.30
2009,08,15,07,01,12.30
2009,08,15,07,02,12.30
2009,08,15,07,03,12.30
2009,08,15,07,04,12.30
2009,08,15,07,05,12.30
2009,08,15,07,06,12.30
2009,08,15,07,07,12.30
2009,08,15,07,08,12.30
2009,08,15,07,09,12.30
2009,08,15,07,10,12.30
2009,08,15,07,11,12.40
2009,08,15,07,12,12.40
2009,08,15,07,13,12.40
2009,08,15,07,14,12.40
2009,08,15,07,15,12.50
2009,08,15,07,16,12.50
2009,08,15,07,17,12.50
2009,08,15,07,18,12.50
2009,08,15,07,19,12.60
2009,08,15,07,20,12.60
2009,08,15,07,21,12.60
2009,08,15,07,22,12.60
2009,08,15,07,23,12.60
2009,08,15,07,24,12.70
2009,08,15,07,25,12.70
2009,08,15,07,26,12.70
2009,08,15,07,27,12.70
2009,08,15,07,28,12.70
2009,08,15,07,29,12.80
2009,08,15,07,30,12.80
2009,08,15,07,31,12.80
2009,08,15,07,32,12.80
2009,08,15,07,33,12.80
2009,08,15,07,34,12.80
2009,08,15,07,35,12.80
2009,08,15,07,36,12.90
2009,08,15,07,37,13.00
2009,08,15,07,38,13.00
2009,08,15,07,39,13.10
2009,08,15,07,40,13.10
2009,08,15,07,41,13.20
2009,08,15,07,42,13.30
2009,08,15,07,43,13.30
2009,08,15,07,44,13.30
2009,08,15,07,45,13.30
2009,08,15,07,46,13.30
2009,08,15,07,47,13.30
2009,08,15,07,48,13.30
2009,08,15,07,49,13.30
2009,08,15,07,50,13.30
2009,08,15,07,51,13.30
2009,08,15,07,52,13.30
2009,08,15,07,53,13.20
2009,08,15,07,54,13.10
2009,08,15,07,55,13.10
2009,08,15,07,56,13.10
2009,08,15,07,57,13.00
2009,08,15,07,58,13.00
2009,08,15,07,59,12.90
2009,08,15,08,00,12.90
2009,08,15,08,01,12.80
2009,08,15,08,02,12.80
2009,08,15,08,03,12.80
2009,08,15,08,04,12.80
2009,08,15,08,05,12.80
2009,08,15,08,06,12.80
2009,08,15,08,07,12.70
2009,08,15,08,08,12.60
2009,08,15,08,09,12.60
2009,08,15,08,10,12.60
2009,08,15,08,11,12.60
2009,08,15,08,12,12.60
2009,08,15,08,13,12.70
2009,08,15,08,14,12.70
2009,08,15,08,15,12.70
2009,08,15,08,16,12.70
2009,08,15,08,17,12.70
2009,08,15,08,18,12.70
2009,08,15,08,19,12.70
2009,08,15,08,20,12.70
2009,08,15,08,21,12.70
2009,08,15,08,22,12.80
2009,08,15,08,23,12.80
2009,08,15,08,24,12.80
2009,08,15,08,25,12.80
2009,08,15,08,26,12.80
2009,08,15,08,27,12.90
2009,08,15,08,28,12.90
2009,08,15,08,29,13.00
2009,08,15,08,30,13.00
2009,08,15,08,31,13.10
2009,08,15,08,32,13.10
2009,08,15,08,33,13.20
2009,08,15,08,34,13.20
2009,08,15,08,35,13.30
2009,08,15,08,36,13.30
2009,08,15,08,37,13.30
2009,08,15,08,38,13.40
2009,08,15,08,39,13.40
2009,08,15,08,40,13.50
2009,08,15,08,41,13.50
2009,08,15,08,42,13.60
2009,08,15,08,43,13.60
2009,08,15,08,44,13.60
2009,08,15,08,45,13.70
2009,08,15,08,46,13.70
2009,08,15,08,47,13.70
2009,08,15,08,48,13.70
2009,08,15,08,49,13.70
2009,08,15,08,50,13.70
2009,08,15,08,51,13.70
2009,08,15,08,52,13.80
2009,08,15,08,53,13.80
2009,08,15,08,54,13.80
2009,08,15,08,55,13.90
2009,08,15,08,56,13.90
2009,08,15,08,57,13.90
2009,08,15,08,58,14.00
2009,08,15,08,59,13.90
2009,08,15,09,00,13.80
2009,08,15,09,01,13.70
2009,08,15,09,02,13.70
2009,08,15,09,03,13.70
2009,08,15,09,04,13.70
2009,08,15,09,05,13.60
2009,08,15,09,06,13.60
2009,08,15,09,07,13.50
2009,08,15,09,08,13.50
2009,08,15,09,09,13.50
2009,08,15,09,10,13.50
2009,08,15,09,11,13.50
2009,08,15,09,12,13.60
2009,08,15,09,13,13.60
2009,08,15,09,14,13.60
2009,08,15,09,15,13.60
2009,08,15,09,16,13.60
2009,08,15,09,17,13.60
2009,08,15,09,18,13.60
2009,08,15,09,19,13.70
2009,08,15,09,20,13.70
2009,08,15,09,21,13.70
2009,08,15,09,22,13.80
2009,08,15,09,23,13.80
2009,08,15,09,24,13.90
2009,08,15,09,25,13.90
2009,08,15,09,26,13.90
2009,08,15,09,27,13.80
2009,08,15,09,28,13.90
2009,08,15,09,29,13.90
2009,08,15,09,30,13.90
2009,08,15,09,31,14.00
2009,08,15,09,32,14.00
2009,08,15,09,33,14.00
2009,08,15,09,34,14.00
2009,08,15,09,35,14.10
2009,08,15,09,36,14.20
2009,08,15,09,37,14.30
2009,08,15,09,38,14.40
2009,08,15,09,39,14.60
2009,08,15,09,40,14.70
2009,08,15,09,41,14.80
2009,08,15,09,42,14.90
2009,08,15,09,43,15.00
2009,08,15,09,44,15.10
2009,08,15,09,45,15.20
2009,08,15,09,46,15.30
2009,08,15,09,47,15.30
2009,08,15,09,48,15.50
2009,08,15,09,49,15.60
2009,08,15,09,50,15.60
2009,08,15,09,51,15.70
2009,08,15,09,52,15.80
2009,08,15,09,53,15.80
2009,08,15,09,54,15.80
2009,08,15,09,55,15.80
2009,08,15,09,56,15.80
2009,08,15,09,57,15.70
2009,08,15,09,58,15.60
2009,08,15,09,59,15.50
2009,08,15,10,00,15.50
2009,08,15,10,01,15.50
2009,08,15,10,02,15.50
2009,08,15,10,03,15.50
2009,08,15,10,04,15.30
2009,08,15,10,05,15.20
2009,08,15,10,06,14.90
2009,08,15,10,07,14.70
2009,08,15,10,08,14.50
2009,08,15,10,09,14.20
2009,08,15,10,10,14.00
2009,08,15,10,11,13.70
2009,08,15,10,12,13.60
2009,08,15,10,13,13.40
2009,08,15,10,14,13.40
2009,08,15,10,15,13.50
2009,08,15,10,16,13.50
2009,08,15,10,17,13.60
2009,08,15,10,18,13.60
2009,08,15,10,19,13.60
2009,08,15,10,20,13.70
2009,08,15,10,21,13.70
2009,08,15,10,22,13.60
2009,08,15,10,23,13.50
2009,08,15,10,24,13.40
2009,08,15,10,25,13.30
2009,08,15,10,26,13.30
2009,08,15,10,27,13.20
2009,08,15,10,28,13.30
2009,08,15,10,29,13.30
2009,08,15,10,30,13.20
2009,08,15,10,31,13.30
2009,08,15,10,32,13.30
2009,08,15,10,33,13.30
2009,08,15,10,34,13.40
2009,08,15,10,35,13.40
2009,08,15,10,36,13.50
2009,08,15,10,37,13.60
2009,08,15,10,38,13.70
2009,08,15,10,39,13.80
2009,08,15,10,40,13.90
2009,08,15,10,41,14.10
2009,08,15,10,42,14.20
2009,08,15,10,43,14.40
2009,08,15,10,44,14.60
2009,08,15,10,45,14.70
2009,08,15,10,46,14.80
2009,08,15,10,47,14.90
2009,08,15,10,48,15.00
2009,08,15,10,49,15.10
2009,08,15,10,50,15.10
2009,08,15,10,51,15.10
2009,08,15,10,52,15.00
2009,08,15,10,53,15.00
2009,08,15,10,54,14.90
2009,08,15,10,55,14.80
2009,08,15,10,56,14.70
2009,08,15,10,57,14.50
2009,08,15,10,58,14.30
2009,08,15,10,59,14.10
2009,08,15,11,00,14.00
2009,08,15,11,01,13.90
2009,08,15,11,02,13.80
2009,08,15,11,03,13.70
2009,08,15,11,04,13.70
2009,08,15,11,05,13.70
2009,08,15,11,06,13.70
2009,08,15,11,07,13.70
2009,08,15,11,08,13.60
2009,08,15,11,09,13.60
2009,08,15,11,10,13.60
2009,08,15,11,11,13.60
2009,08,15,11,12,13.60
2009,08,15,11,13,13.50
2009,08,15,11,14,13.40
2009,08,15,11,15,13.30
2009,08,15,11,16,13.30
2009,08,15,11,17,13.20
2009,08,15,11,18,13.20
2009,08,15,11,19,13.20
2009,08,15,11,20,13.20
2009,08,15,11,21,13.20
2009,08,15,11,22,13.30
2009,08,15,11,23,13.30
2009,08,15,11,24,13.30
2009,08,15,11,25,13.30
2009,08,15,11,26,13.30
2009,08,15,11,27,13.40
2009,08,15,11,28,13.40
2009,08,15,11,29,13.40
2009,08,15,11,30,13.40
2009,08,15,11,31,13.30
2009,08,15,11,32,13.30
2009,08,15,11,33,13.30
2009,08,15,11,34,13.20
2009,08,15,11,35,13.20
2009,08,15,11,36,13.10
2009,08,15,11,37,13.10
2009,08,15,11,38,13.10
2009,08,15,11,39,13.00
2009,08,15,11,40,13.00
2009,08,15,11,41,13.00
2009,08,15,11,42,12.90
2009,08,15,11,43,12.90
2009,08,15,11,44,12.90
2009,08,15,11,45,13.00
2009,08,15,11,46,13.00
2009,08,15,11,47,13.00
2009,08,15,11,48,13.10
2009,08,15,11,49,13.10
2009,08,15,11,50,13.20
2009,08,15,11,51,13.20
2009,08,15,11,52,13.20
2009,08,15,11,53,13.20
2009,08,15,11,54,13.20
2009,08,15,11,55,13.20
2009,08,15,11,56,13.30
2009,08,15,11,57,13.20
2009,08,15,11,58,13.20
2009,08,15,11,59,13.30
2009,08,15,12,00,13.30
2009,08,15,12,01,13.30
2009,08,15,12,02,13.30
2009,08,15,12,03,13.30
2009,08,15,12,04,13.30
2009,08,15,12,05,13.30
2009,08,15,12,06,13.30
2009,08,15,12,07,13.30
2009,08,15,12,08,13.30
2009,08,15,12,09,13.30
2009,08,15,12,10,13.30
2009,08,15,12,11,13.40
2009,08,15,12,12,13.50
2009,08,15,12,13,13.60
2009,08,15,12,14,13.70
2009,08,15,12,15,13.80
2009,08,15,12,16,13.90
2009,08,15,12,17,14.00
2009,08,15,12,18,14.00
2009,08,15,12,19,14.10
2009,08,15,12,20,14.10
2009,08,15,12,21,14.20
2009,08,15,12,22,14.30
2009,08,15,12,23,14.50
2009,08,15,12,24,14.50
2009,08,15,12,25,14.50
2009,08,15,12,26,14.50
2009,08,15,12,27,14.50
2009,08,15,12,28,14.50
2009,08,15,12,29,14.50
2009,08,15,12,30,14.60
2009,08,15,12,31,14.60
2009,08,15,12,32,14.60
2009,08,15,12,33,14.60
2009,08,15,12,34,14.50
2009,08,15,12,35,14.50
2009,08,15,12,36,14.50
2009,08,15,12,37,14.60
2009,08,15,12,38,14.70
2009,08,15,12,39,14.80
2009,08,15,12,40,14.90
2009,08,15,12,41,14.90
2009,08,15,12,42,14.80
2009,08,15,12,43,14.70
2009,08,15,12,44,14.70
2009,08,15,12,45,14.60
2009,08,15,12,46,14.70
2009,08,15,12,47,14.80
2009,08,15,12,48,14.80
2009,08,15,12,49,14.80
2009,08,15,12,50,14.80
2009,08,15,12,51,14.80
2009,08,15,12,52,14.90
2009,08,15,12,53,15.00
2009,08,15,12,54,15.10
2009,08,15,12,55,15.20
2009,08,15,12,56,15.30
2009,08,15,12,57,15.20
2009,08,15,12,58,15.10
2009,08,15,12,59,15.10
2009,08,15,13,00,15.10
2009,08,15,13,01,15.10
2009,08,15,13,02,15.00
2009,08,15,13,03,15.10
2009,08,15,13,04,15.00
2009,08,15,13,05,15.00
2009,08,15,13,06,15.00
2009,08,15,13,07,15.00
2009,08,15,13,08,15.10
2009,08,15,13,09,15.10
2009,08,15,13,10,15.10
2009,08,15,13,11,15.00
2009,08,15,13,12,15.00
2009,08,15,13,13,15.00
2009,08,15,13,14,15.00
2009,08,15,13,15,15.10
2009,08,15,13,16,15.20
2009,08,15,13,17,15.30
2009,08,15,13,18,15.30
2009,08,15,13,19,15.30
2009,08,15,13,20,15.30
2009,08,15,13,21,15.30
2009,08,15,13,22,15.30
2009,08,15,13,23,15.40
2009,08,15,13,24,15.40
2009,08,15,13,25,15.40
2009,08,15,13,26,15.40
2009,08,15,13,27,15.50
2009,08,15,13,28,15.60
2009,08,15,13,29,15.70
2009,08,15,13,30,15.80
2009,08,15,13,31,16.00
2009,08,15,13,32,16.10
2009,08,15,13,33,16.10
2009,08,15,13,34,16.10
2009,08,15,13,35,16.00
2009,08,15,13,36,15.90
2009,08,15,13,37,15.80
2009,08,15,13,38,15.70
2009,08,15,13,39,15.70
2009,08,15,13,40,15.60
2009,08,15,13,41,15.70
2009,08,15,13,42,15.80
2009,08,15,13,43,15.80
2009,08,15,13,44,15.80
2009,08,15,13,45,15.80
2009,08,15,13,46,15.60
2009,08,15,13,47,15.60
2009,08,15,13,48,15.50
2009,08,15,13,49,15.40
2009,08,15,13,50,15.40
2009,08,15,13,51,15.30
2009,08,15,13,52,15.30
2009,08,15,13,53,15.30
2009,08,15,13,54,15.40
2009,08,15,13,55,15.50
2009,08,15,13,56,15.50
2009,08,15,13,57,15.60
2009,08,15,13,58,15.50
2009,08,15,13,59,15.60
2009,08,15,14,00,15.60
2009,08,15,14,01,15.50
2009,08,15,14,02,15.40
2009,08,15,14,03,15.30
2009,08,15,14,04,15.30
2009,08,15,14,05,15.30
2009,08,15,14,06,15.30
2009,08,15,14,07,15.30
2009,08,15,14,08,15.20
2009,08,15,14,09,15.10
2009,08,15,14,10,15.00
2009,08,15,14,11,14.90
2009,08,15,14,12,14.80
2009,08,15,14,13,14.80
2009,08,15,14,14,14.70
2009,08,15,14,15,14.70
2009,08,15,14,16,14.70
2009,08,15,14,17,14.70
2009,08,15,14,18,14.70
2009,08,15,14,19,14.80
2009,08,15,14,20,14.80
2009,08,15,14,21,14.90
2009,08,15,14,22,14.90
2009,08,15,14,23,14.90
2009,08,15,14,24,14.90
2009,08,15,14,25,15.00
2009,08,15,14,26,15.10
2009,08,15,14,27,15.10
2009,08,15,14,28,15.00
2009,08,15,14,29,15.00
2009,08,15,14,30,15.10
2009,08,15,14,31,15.20
2009,08,15,14,32,15.10
2009,08,15,14,33,15.10
2009,08,15,14,34,15.10
2009,08,15,14,35,15.20
2009,08,15,14,36,15.30
2009,08,15,14,37,15.30
2009,08,15,14,38,15.40
2009,08,15,14,39,15.50
2009,08,15,14,40,15.60
2009,08,15,14,41,15.60
2009,08,15,14,42,15.70
2009,08,15,14,43,15.60
2009,08,15,14,44,15.60
2009,08,15,14,45,15.60
2009,08,15,14,46,15.60
2009,08,15,14,47,15.70
2009,08,15,14,48,15.70
2009,08,15,14,49,15.80
2009,08,15,14,50,15.80
2009,08,15,14,51,15.90
2009,08,15,14,52,15.90
2009,08,15,14,53,16.00
2009,08,15,14,54,15.90
2009,08,15,14,55,15.90
2009,08,15,14,56,15.80
2009,08,15,14,57,15.80
2009,08,15,14,58,15.80
2009,08,15,14,59,15.80
2009,08,15,15,00,15.70
2009,08,15,15,01,15.70
2009,08,15,15,02,15.80
2009,08,15,15,03,16.00
2009,08,15,15,04,16.10
2009,08,15,15,05,16.10
2009,08,15,15,06,16.00
2009,08,15,15,07,15.90
2009,08,15,15,08,15.80
2009,08,15,15,09,15.80
2009,08,15,15,10,15.80
2009,08,15,15,11,15.80
2009,08,15,15,12,15.80
2009,08,15,15,13,15.70
2009,08,15,15,14,15.70
2009,08,15,15,15,15.80
2009,08,15,15,16,15.80
2009,08,15,15,17,15.80
2009,08,15,15,18,15.80
2009,08,15,15,19,16.00
2009,08,15,15,20,16.10
2009,08,15,15,21,16.10
2009,08,15,15,22,16.10
2009,08,15,15,23,16.10
2009,08,15,15,24,16.10
2009,08,15,15,25,16.10
2009,08,15,15,26,16.10
2009,08,15,15,27,16.00
2009,08,15,15,28,15.90
2009,08,15,15,29,15.80
2009,08,15,15,30,15.80
2009,08,15,15,31,15.80
2009,08,15,15,32,15.80
2009,08,15,15,33,15.90
2009,08,15,15,34,16.00
2009,08,15,15,35,16.20
2009,08,15,15,36,16.30
2009,08,15,15,37,16.30
2009,08,15,15,38,16.40
2009,08,15,15,39,16.40
2009,08,15,15,40,16.40
2009,08,15,15,41,16.40
2009,08,15,15,42,16.40
2009,08,15,15,43,16.40
2009,08,15,15,44,16.40
2009,08,15,15,45,16.40
2009,08,15,15,46,16.40
2009,08,15,15,47,16.40
2009,08,15,15,48,16.40
2009,08,15,15,49,16.30
2009,08,15,15,50,16.30
2009,08,15,15,51,16.30
2009,08,15,15,52,16.30
2009,08,15,15,53,16.20
2009,08,15,15,54,16.20
2009,08,15,15,55,16.20
2009,08,15,15,56,16.30
2009,08,15,15,57,16.30
2009,08,15,15,58,16.30
2009,08,15,15,59,16.30
2009,08,15,16,00,16.20
2009,08,15,16,01,16.20
2009,08,15,16,02,16.20
2009,08,15,16,03,16.10
2009,08,15,16,04,16.10
2009,08,15,16,05,16.10
2009,08,15,16,06,16.10
2009,08,15,16,07,16.00
2009,08,15,16,08,15.90
2009,08,15,16,09,15.80
2009,08,15,16,10,15.70
2009,08,15,16,11,15.60
2009,08,15,16,12,15.60
2009,08,15,16,13,15.60
2009,08,15,16,14,15.50
2009,08,15,16,15,15.50
2009,08,15,16,16,15.60
2009,08,15,16,17,15.60
2009,08,15,16,18,15.60
2009,08,15,16,19,15.60
2009,08,15,16,20,15.50
2009,08,15,16,21,15.40
2009,08,15,16,22,15.40
2009,08,15,16,23,15.40
2009,08,15,16,24,15.30
2009,08,15,16,25,15.30
2009,08,15,16,26,15.30
2009,08,15,16,27,15.30
2009,08,15,16,28,15.30
2009,08,15,16,29,15.30
2009,08,15,16,30,15.30
2009,08,15,16,31,15.40
2009,08,15,16,32,15.40
2009,08,15,16,33,15.50
2009,08,15,16,34,15.50
2009,08,15,16,35,15.60
2009,08,15,16,36,15.60
2009,08,15,16,37,15.70
2009,08,15,16,38,15.70
2009,08,15,16,39,15.80
2009,08,15,16,40,15.80
2009,08,15,16,41,15.80
2009,08,15,16,42,15.90
2009,08,15,16,43,16.00
2009,08,15,16,44,16.10
2009,08,15,16,45,16.10
2009,08,15,16,46,16.20
2009,08,15,16,47,16.20
2009,08,15,16,48,16.20
2009,08,15,16,49,16.20
2009,08,15,16,50,16.20
2009,08,15,16,51,16.20
2009,08,15,16,52,16.30
2009,08,15,16,53,16.20
2009,08,15,16,54,16.20
2009,08,15,16,55,16.10
2009,08,15,16,56,15.90
2009,08,15,16,57,15.70
2009,08,15,16,58,15.60
2009,08,15,16,59,15.40
2009,08,15,17,00,15.30
2009,08,15,17,01,15.30
2009,08,15,17,02,15.30
2009,08,15,17,03,15.20
2009,08,15,17,04,15.20
2009,08,15,17,05,15.20
2009,08,15,17,06,15.20
2009,08,15,17,07,15.20
2009,08,15,17,08,15.20
2009,08,15,17,09,15.20
2009,08,15,17,10,15.20
2009,08,15,17,11,15.20
2009,08,15,17,12,15.10
2009,08,15,17,13,15.10
2009,08,15,17,14,15.10
2009,08,15,17,15,15.10
2009,08,15,17,16,15.20
2009,08,15,17,17,15.20
2009,08,15,17,18,15.20
2009,08,15,17,19,15.20